Weather History for KSYR - February, 2014

Change the Weather History Date:

Monday, February 10, 2014

  Actual Average Record
Temperature  
Mean Temperature 18 °F 25 °F  
Max Temperature 22 °F 33 °F 56 °F (2001)
Min Temperature 13 °F 17 °F -17 °F (1948)
Degree Days  
Heating Degree Days 47 40  
Month to date heating degree days 447 406  
Since 1 July heating degree days 4313 4142  
Cooling Degree Days 0 0  
Month to date cooling degree days 0 0  
Year to date cooling degree days 0 0  
Moisture  
Dew Point 13 °F    
Average Humidity 83    
Maximum Humidity 92    
Minimum Humidity 73    
Precipitation  
Precipitation 0.06 in 0.07 in 0.87 in (1940)
Month to date precipitation 1.26 0.70  
Year to date precipitation 3.46 3.20  
Snow  
Snow 2.60 in 0.90 in 4.80 in (2005)
Month to date snowfall 15.0 9.5  
Since 1 July snowfall 83.6 86.1  
Snow Depth 12.00 in    
Sea Level Pressure  
Sea Level Pressure 30.15 in    
Wind  
Wind Speed 10 mph (WSW)    
Max Wind Speed 21 mph    
Max Gust Speed 23 mph    
Visibility 4 miles    
Events Fog , Snow    
T = Trace of Precipitation, MM = Missing Value Source: NWS Daily Summary

Daily Weather History Graph

Daily Weather History Graph

Search for Another Location

Airport or City:

Trip Planner

Search our weather history database for the weather conditions in past years. The results will help you decide how hot, cold, wet, or windy it might be!

Date:

Astronomy

Feb. 10, 2014 Rise Set
Actual Time 7:08 AM EST 5:28 PM EST
Civil Twilight 6:39 AM EST 5:58 PM EST
Nautical Twilight 6:05 AM EST 6:31 PM EST
Astronomical Twilight 5:32 AM EST 7:05 PM EST
Moon 1:53 PM EST (2/10) 4:03 AM EST (2/10)
Length of Visible Light 11h 19m
Length of Day
10h 20m
Waxing Gibbous, 84% of the Moon is Illuminated
Feb 10
Waxing Gibbous
Feb 14
Full
Feb 22
Last Quarter
Mar 1
New
Mar 8
First Quarter

Hourly Weather History & Observations

Time (EST) Temp. Windchill Dew Point Humidity Pressure Visibility Wind Dir Wind Speed Gust Speed Precip Events Conditions
12:02 AM 17.6 °F 2.2 °F 14.0 °F 86% 30.01 in 4.0 mi West 17.3 mph - 0.00 in Snow Light Snow
12:13 AM 17.6 °F 2.2 °F 14.0 °F 86% 30.01 in 5.0 mi West 17.3 mph - 0.00 in Snow Light Snow
12:38 AM 17.6 °F 5.7 °F 15.8 °F 93% 30.02 in 1.8 mi West 10.4 mph - 0.00 in Snow Light Snow
12:54 AM 17.1 °F 5.8 °F 15.1 °F 92% 30.04 in 1.0 mi West 9.2 mph - 0.00 in Snow Light Snow
1:28 AM 15.8 °F 6.1 °F 14.0 °F 93% 30.04 in 3.0 mi WSW 6.9 mph - 0.00 in Snow Light Snow
1:40 AM 14.0 °F 3.9 °F 12.2 °F 93% 30.04 in 6.0 mi WSW 6.9 mph - 0.00 in Snow Light Snow
1:54 AM 16.0 °F 5.3 °F 14.0 °F 92% 30.05 in 7.0 mi WSW 8.1 mph - 0.00 in Snow Light Snow
2:04 AM 17.6 °F 6.4 °F 15.8 °F 93% 30.04 in 1.8 mi WSW 9.2 mph - 0.01 in Snow Light Snow
2:29 AM 17.6 °F 5.7 °F 15.8 °F 93% 30.04 in 0.8 mi WSW 10.4 mph - 0.02 in Snow Light Snow
2:49 AM 17.6 °F 5.0 °F 15.8 °F 93% 30.04 in 1.0 mi WSW 11.5 mph - 0.02 in Snow Light Snow
2:54 AM 16.0 °F 2.9 °F 14.0 °F 92% 30.05 in 1.5 mi WSW 11.5 mph - 0.02 in Snow Light Snow
3:08 AM 17.6 °F 4.3 °F 14.0 °F 86% 30.04 in 1.8 mi WSW 12.7 mph - 0.00 in Snow Light Snow
3:46 AM 15.8 °F 0.9 °F 14.0 °F 93% 30.05 in 3.0 mi WSW 15.0 mph - 0.01 in Snow Light Snow
3:54 AM 16.0 °F 0.6 °F 14.0 °F 92% 30.07 in 3.0 mi WSW 16.1 mph - 0.01 in Snow Light Snow
4:54 AM 16.0 °F 4.4 °F 12.9 °F 88% 30.09 in 5.0 mi West 9.2 mph - 0.00 in Snow Light Snow
5:54 AM 15.1 °F 3.3 °F 12.9 °F 91% 30.11 in 5.0 mi WSW 9.2 mph - 0.00 in Snow Light Snow
6:22 AM 15.8 °F 3.4 °F 12.2 °F 86% 30.10 in 2.0 mi WSW 10.4 mph - 0.00 in Snow Light Snow
6:39 AM 15.8 °F 5.1 °F 12.2 °F 86% 30.11 in 3.0 mi WSW 8.1 mph - 0.00 in Snow Light Snow
6:54 AM 15.1 °F 4.2 °F 12.0 °F 88% 30.12 in 5.0 mi WSW 8.1 mph - 0.00 in Snow Light Snow
7:18 AM 15.8 °F 4.2 °F 12.2 °F 86% 30.12 in 2.0 mi WSW 9.2 mph - 0.00 in Snow Light Snow
7:33 AM 15.8 °F 5.1 °F 12.2 °F 86% 30.12 in 2.0 mi WSW 8.1 mph - 0.00 in Snow Light Snow
7:45 AM 15.8 °F 5.1 °F 12.2 °F 86% 30.13 in 1.8 mi WSW 8.1 mph - 0.00 in Snow Light Snow
7:54 AM 15.1 °F 5.2 °F 12.9 °F 91% 30.14 in 1.2 mi WSW 6.9 mph - 0.00 in Snow Light Snow
8:44 AM 15.8 °F 4.2 °F 12.2 °F 86% 30.14 in 2.0 mi WSW 9.2 mph - 0.00 in Snow Light Snow
8:54 AM 15.1 °F 4.2 °F 10.9 °F 84% 30.16 in 5.0 mi WSW 8.1 mph - 0.01 in   Scattered Clouds
9:54 AM 17.1 °F 6.6 °F 12.9 °F 84% 30.17 in 5.0 mi WSW 8.1 mph - 0.00 in Snow Light Snow
10:54 AM 18.0 °F 6.1 °F 12.0 °F 78% 30.18 in 3.0 mi WSW 10.4 mph - 0.00 in Snow Light Snow
11:43 AM 19.4 °F 7.9 °F 14.0 °F 80% 30.16 in 2.5 mi WSW 10.4 mph - 0.00 in Snow Light Snow
11:54 AM 19.9 °F 8.6 °F 14.0 °F 78% 30.18 in 3.0 mi WSW 10.4 mph - 0.00 in Snow Light Snow
12:37 PM 21.2 °F 10.9 °F 14.0 °F 74% 30.16 in 4.0 mi SW 9.2 mph - 0.00 in Snow Light Snow
12:44 PM 19.4 °F 6.6 °F 14.0 °F 80% 30.15 in 2.5 mi WSW 12.7 mph - 0.00 in Snow Light Snow
12:54 PM 19.9 °F 6.7 °F 14.0 °F 78% 30.17 in 4.0 mi WSW 13.8 mph - 0.00 in Snow Light Snow
1:10 PM 21.2 °F 8.9 °F 15.8 °F 80% 30.15 in 4.0 mi WSW 12.7 mph - 0.00 in Snow Light Snow
1:38 PM 19.4 °F 7.9 °F 12.2 °F 74% 30.14 in 2.5 mi WSW 10.4 mph - 0.00 in Snow Light Snow
1:54 PM 21.0 °F 10.6 °F 14.0 °F 74% 30.15 in 5.0 mi SW 9.2 mph - 0.00 in Snow Light Snow
2:23 PM 19.4 °F 7.9 °F 14.0 °F 80% 30.14 in 1.2 mi WNW 10.4 mph - 0.00 in Snow Light Snow
2:24 PM 19.4 °F 8.6 °F 14.0 °F 80% 30.14 in 0.8 mi WNW 9.2 mph - 0.00 in Snow Light Snow
2:32 PM 19.4 °F 7.9 °F 15.8 °F 86% 30.15 in 0.2 mi NNW 10.4 mph - 0.00 in Fog , Snow Heavy Snow
2:46 PM 19.4 °F 9.5 °F 15.8 °F 86% 30.15 in 1.2 mi NW 8.1 mph - 0.02 in Snow Light Snow
2:54 PM 19.0 °F 9.0 °F 15.1 °F 85% 30.16 in 1.2 mi NW 8.1 mph - 0.02 in Snow Light Snow
3:38 PM 21.2 °F 11.7 °F 15.8 °F 80% 30.15 in 1.5 mi NW 8.1 mph - 0.00 in Snow Light Snow
3:43 PM 19.4 °F 9.5 °F 15.8 °F 86% 30.15 in 5.0 mi NW 8.1 mph - 0.00 in Snow Light Snow
3:54 PM 19.9 °F 10.1 °F 12.9 °F 74% 30.17 in 9.0 mi NW 8.1 mph - 0.00 in Snow Light Snow
4:01 PM 19.4 °F 6.6 °F 12.2 °F 74% 30.15 in 9.0 mi WSW 12.7 mph - 0.00 in   Mostly Cloudy
4:54 PM 19.9 °F 6.7 °F 12.0 °F 71% 30.18 in 6.0 mi West 13.8 mph - 0.00 in Snow Light Snow
5:05 PM 19.4 °F 3.2 °F 12.2 °F 74% 30.18 in 1.5 mi West 20.7 mph - 0.00 in Snow Light Snow
5:09 PM 19.4 °F 5.0 °F 15.8 °F 86% 30.18 in 0.5 mi West 16.1 mph - 0.00 in Fog , Snow Snow
5:15 PM 19.4 °F 6.6 °F 15.8 °F 86% 30.18 in 3.0 mi WSW 12.7 mph - 0.00 in Snow Light Snow
5:25 PM 17.6 °F 4.3 °F 14.0 °F 86% 30.19 in 4.0 mi WSW 12.7 mph - 0.00 in   Overcast
5:54 PM 17.1 °F 4.3 °F 10.0 °F 74% 30.22 in 10.0 mi West 11.5 mph - 0.00 in   Scattered Clouds
6:54 PM 14.0 °F 3.9 °F 8.1 °F 77% 30.23 in 10.0 mi WSW 6.9 mph - N/A   Scattered Clouds
7:54 PM 15.1 °F 2.5 °F 9.0 °F 77% 30.25 in 10.0 mi West 10.4 mph - N/A   Overcast
8:18 PM 15.8 °F 0.9 °F 8.6 °F 73% 30.23 in 5.0 mi West 15.0 mph - 0.00 in Snow Light Snow
8:54 PM 15.1 °F 2.5 °F 10.9 °F 84% 30.25 in 5.0 mi WSW 10.4 mph - 0.00 in Snow Light Snow
9:36 PM 15.8 °F 2.7 °F 8.6 °F 73% 30.25 in 8.0 mi WSW 11.5 mph - 0.00 in Snow Light Snow
9:51 PM 14.0 °F 0.5 °F 8.6 °F 79% 30.25 in 9.0 mi WSW 11.5 mph - 0.00 in   Overcast
9:54 PM 14.0 °F 0.5 °F 9.0 °F 80% 30.27 in 9.0 mi WSW 11.5 mph - 0.00 in   Overcast
10:22 PM 14.0 °F 0.5 °F 8.6 °F 79% 30.27 in 4.0 mi WSW 11.5 mph - 0.00 in Snow Light Snow
10:50 PM 14.0 °F 2.9 °F 8.6 °F 79% 30.27 in 9.0 mi West 8.1 mph - 0.00 in Snow Light Snow
10:54 PM 14.0 °F 3.9 °F 8.1 °F 77% 30.29 in 9.0 mi West 6.9 mph - 0.00 in Snow Light Snow
11:05 PM 14.0 °F 2.0 °F 8.6 °F 79% 30.27 in 4.0 mi West 9.2 mph - 0.00 in Snow Light Snow
11:30 PM 14.0 °F 0.5 °F 8.6 °F 79% 30.28 in 2.0 mi West 11.5 mph - 0.00 in Snow Light Snow
11:54 PM 12.9 °F -2.2 °F 9.0 °F 84% 30.30 in 2.5 mi WSW 13.8 mph - 0.00 in Snow Light Snow